Location: Neuvy Saint Sepulchre
(46.5953°N, 1.8122°E)
Time: 02:37:45
(UTC+02:00)

ISS - Pass Details

Date: 25 March 2019
Orbit: 408 x 410 km, 51.6° (Epoch: 23 April)

Event Time Altitude Azimuth Distance (km) Brightness Sun altitude
Rises 20:10:29 0° 245° (WSW) 2,329 0.9 -10.8°
Reaches altitude 10° 20:12:34 10° 246° (WSW) 1,470 -0.2 -11.1°
Maximum altitude 20:15:52 82° 334° (NNW) 417 -3.8 -11.7°
Enters shadow 20:18:44 13° 62° (ENE) 1,297 -1.7 -12.1°
